Location: Seclusion Ranch
(37.6167°N, 104.1333°W)
Time: 00:14:20
(UTC-06:00)

Tiangong 2 - Visible Passes

Search period start: 16 July 2018 00:00
Search period end: 26 July 2018 00:00
Orbit: 386 x 394 km, 42.8° (Epoch: 15 July)

Date Brightness Start Highest point End Pass type
(mag) Time Alt. Az. Time Alt. Az. Time Alt. Az.
16 Jul 2.9 21:46:49 10° WNW 21:49:41 30° N 21:52:30 10° ENE visible
16 Jul 3.9 23:23:54 10° WNW 23:24:49 17° NW 23:24:49 17° NW visible
17 Jul 2.7 20:48:56 10° WNW 20:51:52 34° N 20:54:49 10° ENE visible
17 Jul 2.4 22:26:13 10° WNW 22:29:11 35° N 22:29:35 33° NNE visible
18 Jul 2.8 21:28:29 10° WNW 21:31:21 31° N 21:34:14 10° ENE visible
18 Jul 3.5 23:05:21 10° WNW 23:06:37 22° WNW 23:06:37 22° WNW visible
19 Jul 1.8 22:07:42 10° WNW 22:10:47 47° NNE 22:11:19 41° NE visible
20 Jul 2.4 21:10:01 10° WNW 21:12:59 36° N 21:15:57 10° E visible
20 Jul 3.1 22:46:50 10° WNW 22:48:20 25° WNW 22:48:20 25° WNW visible
21 Jul 1.1 21:49:07 10° WNW 21:52:18 77° NNE 21:53:03 48° E visible
22 Jul 1.7 20:51:26 10° WNW 20:54:32 50° NNE 20:57:38 10° E visible
22 Jul 3.0 22:28:27 10° W 22:30:06 23° WSW 22:30:06 23° WSW visible
23 Jul 1.3 21:30:34 10° WNW 21:33:42 57° SSW 21:34:52 32° SE visible
24 Jul 3.4 22:10:30 10° WSW 22:12:00 15° SW 22:12:00 15° SW visible
25 Jul 2.5 21:12:12 10° W 21:15:00 28° SSW 21:16:52 16° SSE visible
